Theta_e
331 333 333 331 330 331 330 331 333 334 336 338 339 340 340 342 345 343 342 341 337 335 334 334 334 335 333 332 331 330 330 329 329 329 329 329 329 327 326 324 326 325 324 323
330 331 330 329 328 329 330 331 332 334 338 339 339 341 340 340 342 344 343 342 339 336 335 334 333 334 333 333 332 328 328 328 328 330 331 328 328 322 323 321 322 322 321 321
330 330 329 329 329 329 330 330 331 333 339 339 341 341 337 342 343 344 343 343 342 338 337 336 336 335 334 334 333 328 328 329 329 329 328 326 324 321 319 318 317 318 319 317
330 330 329 329 329 329 330 329 330 334 340 335 341 338 337 339 342 343 343 343 343 341 339 338 337 336 336 336 335 334 329 330 330 325 325 319 316 316 316 317 318 319 319 318
330 330 330 329 329 329 329 330 333 334 337 338 336 342 337 341 337 338 340 343 342 343 340 338 337 338 338 338 337 333 330 328 323 316 313 319 320 318 318 318 319 320 317 318
330 328 328 329 329 328 329 333 335 336 335 336 336 338 335 337 339 337 336 339 341 341 341 340 340 338 337 337 335 327 326 324 314 312 312 313 315 320 318 318 318 318 317 316
330 329 328 327 328 330 334 335 335 333 333 337 338 336 335 337 335 335 336 336 339 340 339 337 337 336 336 334 330 323 328 324 314 317 321 323 324 323 320 320 318 318 316 315
329 330 329 330 331 332 335 336 334 336 335 335 334 336 337 333 333 335 335 336 335 335 336 336 335 334 332 329 327 327 326 321 319 321 323 322 323 320 319 318 319 318 316 315
330 329 330 332 333 334 335 335 334 335 333 334 332 333 332 334 333 335 335 334 334 334 334 333 332 331 329 327 324 322 322 321 321 322 322 320 321 320 318 315 312 315 316 316
331 331 332 334 333 331 333 331 333 333 335 335 332 333 333 332 332 332 334 334 333 333 333 331 330 330 329 327 323 322 316 320 320 320 320 319 319 318 317 316 315 315 314 314
334 335 333 334 334 334 333 332 333 333 334 334 332 330 330 331 331 332 331 331 333 332 331 330 328 325 323 320 317 320 320 318 318 318 317 317 317 315 314 312 312 312 312 312
336 338 337 335 332 329 330 332 332 333 333 332 331 333 330 330 329 329 329 331 332 331 329 326 322 318 316 316 316 316 318 317 317 317 316 315 313 312 312 311 310 310 310 311
336 338 337 336 332 330 331 332 331 332 335 332 333 333 331 328 328 328 329 330 329 327 322 320 318 320 317 317 317 318 318 317 315 314 312 311 311 311 310 309 308 308 309 309
332 338 337 336 334 332 333 331 331 333 335 332 331 333 330 327 328 327 328 326 324 321 319 321 319 318 319 319 318 317 315 313 312 311 310 309 309 308 308 308 307 308 309 310
337 339 335 334 331 332 332 330 329 330 331 334 332 331 327 326 327 327 325 324 323 320 320 319 319 319 318 318 316 314 312 311 310 309 308 307 307 308 308 308 308 309 308 307
336 340 337 335 332 333 332 330 330 331 330 329 327 328 324 322 321 322 322 322 321 319 319 319 318 317 317 316 314 312 311 310 309 308 307 307 307 307 306 307 306 307 307 306
339 338 337 335 333 332 335 333 332 331 329 328 328 326 322 321 319 318 318 318 318 318 318 317 316 316 315 313 312 311 309 309 308 308 307 307 306 306 306 305 307 306 306 307
340 340 336 335 335 337 336 331 332 331 327 326 325 323 321 319 318 317 317 317 317 317 316 316 316 314 314 312 310 309 309 308 308 308 307 307 306 306 305 305 305 306 306 307
338 340 336 335 333 333 334 334 333 333 330 324 324 321 318 318 317 320 316 316 316 317 317 316 314 312 312 311 309 309 309 308 308 308 307 307 307 306 305 305 305 305 305 306
337 338 336 335 333 333 336 332 331 331 331 322 320 319 318 317 319 320 317 318 317 317 315 314 312 312 312 311 310 310 310 309 309 307 307 307 307 307 305 305 304 304 305 306
338 337 335 332 332 334 332 329 329 334 331 321 319 318 318 319 318 317 317 316 315 314 313 312 312 312 311 311 311 310 310 310 309 309 308 307 308 306 304 305 304 304 306 307
335 335 334 332 332 333 328 328 330 328 323 320 319 318 318 318 317 316 314 314 314 313 313 312 312 312 312 311 311 311 311 310 309 309 309 309 307 305 304 303 304 306 307 308
336 337 336 335 337 331 327 327 326 324 322 320 318 318 318 317 316 314 315 315 314 314 312 311 312 311 311 312 311 311 311 311 309 309 310 309 306 304 304 304 304 306 307 307
334 331 334 335 331 327 325 322 322 322 321 319 318 318 316 315 314 315 316 315 315 315 313 312 311 311 311 311 312 312 312 311 310 310 310 308 307 304 305 305 304 305 305 307
332 331 333 329 324 323 322 321 320 320 319 318 317 316 314 315 316 316 316 315 315 315 314 313 312 312 312 311 311 312 312 311 309 310 310 308 307 305 305 305 305 305 305 306
325 331 329 327 323 322 321 319 318 318 318 318 317 316 316 315 316 316 316 315 315 315 315 314 313 312 312 311 311 311 312 311 310 310 308 307 306 306 306 306 306 306 305 307
Wind_Speed
11 9 10 8 7 10 12 12 11 9 2 7 13 15 14 10 14 16 18 20 20 18 14 14 15 15 15 15 15 15 14 12 12 11 10 11 13 13 15 14 14 13 14 16
7 12 8 7 6 9 10 10 10 6 3 8 12 16 15 11 15 17 19 21 21 19 17 17 16 15 17 16 16 15 13 12 13 11 9 9 10 12 12 10 10 10 10 11
16 13 2 8 13 8 14 16 10 11 2 11 10 18 12 4 9 12 16 20 21 21 20 18 16 17 17 16 16 15 15 15 12 10 8 9 10 11 8 8 9 10 10 11
11 10 9 8 14 15 13 13 10 7 7 12 3 14 16 4 9 9 13 16 20 20 20 18 17 18 18 15 13 15 16 12 10 9 8 10 10 10 11 11 12 13 11 12
17 15 10 12 16 15 16 11 9 9 11 11 18 7 9 4 9 4 5 13 16 22 19 19 17 16 18 16 15 13 12 10 7 8 7 8 10 11 13 14 14 14 15 15
18 16 8 13 17 14 11 9 7 9 11 13 5 5 11 10 8 8 6 6 9 12 16 13 12 17 14 10 9 5 9 7 4 6 9 12 15 15 16 17 18 19 19 20
18 18 17 10 14 10 9 11 12 10 9 9 4 5 9 9 7 9 8 5 3 7 10 11 13 10 12 11 10 3 6 6 7 8 10 12 14 16 18 18 21 20 22 24
15 12 13 9 10 11 4 7 8 18 15 16 6 5 4 5 7 6 4 3 4 5 6 7 8 9 9 10 3 5 7 5 8 10 12 13 14 16 18 19 18 19 22 24
14 12 2 3 4 6 4 8 6 11 17 10 5 2 8 1 4 4 4 2 3 5 6 7 7 7 7 3 4 6 7 9 12 12 12 15 14 14 16 21 22 19 23 23
5 11 3 6 6 3 6 3 7 7 9 12 6 7 6 12 12 11 5 3 2 4 7 5 3 3 5 1 6 6 16 11 12 13 13 13 12 12 15 16 19 22 24 25
3 4 4 5 7 7 4 7 3 4 6 9 9 6 8 11 11 12 13 10 3 4 4 3 3 2 2 5 10 10 8 9 9 10 10 12 13 15 17 19 21 22 23 21
2 3 6 4 3 2 3 4 3 6 6 4 6 4 9 11 12 13 13 10 4 2 2 3 4 7 9 6 12 9 6 6 8 9 13 15 17 19 20 21 21 20 20 20
2 3 7 10 4 2 2 2 3 4 5 12 8 4 9 16 14 14 12 10 8 6 6 7 7 14 9 3 4 5 7 9 12 15 17 19 20 22 21 21 20 19 19 19
4 3 6 9 5 5 4 4 4 4 7 6 2 9 15 13 14 12 9 7 7 7 7 4 8 1 3 4 6 8 10 12 14 16 18 19 18 19 19 19 18 18 17 16
3 5 5 1 1 3 3 3 1 1 3 5 10 6 10 11 9 9 6 4 3 4 4 4 4 3 5 6 8 9 11 13 15 16 16 16 17 18 18 18 16 16 16 18
2 4 5 5 5 4 1 2 2 2 5 2 3 7 7 6 9 10 8 6 3 4 5 5 4 6 7 9 9 10 13 13 14 14 16 16 18 19 20 19 18 18 19 20
4 3 4 2 1 3 5 4 2 4 5 6 6 5 7 7 7 7 7 6 4 4 5 6 8 8 9 9 10 12 12 13 13 15 17 19 20 21 22 24 21 18 20 19
4 3 2 4 6 7 5 3 2 4 3 4 3 4 5 4 3 5 6 5 5 5 7 7 9 10 9 8 10 10 12 13 15 17 19 21 22 25 25 25 21 18 18 18
3 5 1 5 5 3 5 3 1 3 4 3 3 3 2 4 8 7 3 4 6 7 7 7 9 9 7 8 9 11 13 15 16 18 20 23 24 24 23 24 19 20 19 17
3 3 5 1 6 5 7 3 1 4 6 3 1 2 4 7 7 8 7 5 7 8 9 9 10 9 8 9 9 12 14 16 18 20 22 21 23 23 23 22 20 19 18 16
5 3 6 2 5 3 4 1 2 6 5 2 1 2 3 5 6 6 5 7 8 9 9 8 9 9 10 10 11 13 15 18 19 21 21 21 21 23 20 19 21 17 17 15
4 3 2 2 6 4 2 5 5 6 2 1 3 3 4 5 3 4 5 6 7 8 9 9 10 10 11 12 13 15 17 19 20 21 22 21 19 20 18 19 15 18 16 13
2 3 4 5 4 4 2 4 2 3 3 3 4 3 4 4 3 2 4 6 7 8 9 9 10 12 12 12 13 15 18 19 19 19 20 18 18 16 16 16 15 17 17 16
3 1 1 6 4 2 1 1 4 6 5 3 3 3 4 4 3 4 5 7 9 10 10 10 11 13 14 14 14 14 17 18 17 18 18 16 15 15 15 14 13 14 14 15
4 5 4 4 5 5 3 3 4 4 4 4 3 2 3 3 5 7 9 11 11 12 12 13 13 15 16 16 15 14 15 15 14 15 15 14 13 12 13 13 13 11 10 13
5 2 5 2 4 1 3 1 2 4 5 6 5 6 7 8 9 10 12 13 13 14 13 14 15 15 15 15 14 14 13 12 12 13 13 13 12 10 11 12 11 15 13 5
Wind_Direction
203 239 243 336 332 299 312 316 295 309 200 255 264 270 279 235 229 237 229 221 219 217 214 212 209 212 221 225 236 245 249 252 260 258 269 280 283 289 294 293 296 299 299 294
209 241 287 330 295 291 295 299 296 280 254 235 283 278 287 262 241 237 234 227 222 217 214 214 215 218 223 228 236 241 244 243 246 254 267 267 274 286 286 292 299 306 311 306
259 282 318 281 287 253 308 307 298 287 156 240 268 270 267 226 247 235 236 233 225 221 216 214 218 221 224 226 229 234 238 241 253 251 256 279 289 302 301 307 317 312 308 311
260 281 277 263 268 301 299 319 299 265 244 298 242 295 303 307 266 237 243 233 230 225 223 220 218 223 224 223 226 224 232 243 245 253 253 270 279 278 287 303 304 319 310 309
249 246 234 281 276 297 285 308 284 262 265 314 262 251 307 157 285 359 282 242 235 228 227 219 215 219 229 208 212 223 238 231 238 254 263 276 279 290 293 296 299 305 318 312
268 280 273 257 275 289 280 253 232 244 260 269 10 300 307 7 8 325 354 325 232 233 219 225 220 226 216 201 197 194 237 205 251 293 282 282 283 280 287 291 293 301 305 307
237 238 244 261 261 234 232 259 274 290 283 284 35 297 326 6 8 341 331 341 207 197 217 223 214 203 187 164 170 244 194 234 275 266 262 270 277 278 286 291 295 291 304 303
263 248 220 206 246 300 238 302 290 292 312 322 323 291 52 354 330 333 345 326 178 174 166 158 161 172 176 166 216 218 217 243 271 272 277 281 279 286 284 294 285 292 295 302
259 244 126 238 232 256 140 257 6 291 278 261 309 111 243 189 28 333 329 291 186 179 164 158 158 168 183 200 305 286 265 280 280 289 289 297 294 292 290 288 295 298 300 296
284 266 164 142 189 148 279 28 275 252 283 302 334 259 10 14 5 358 328 291 207 185 168 168 170 184 186 256 348 313 286 275 288 301 301 300 299 305 304 305 306 304 301 297
211 259 158 225 219 303 213 233 224 306 306 306 304 20 29 18 1 348 336 343 301 198 192 180 156 131 18 354 319 285 289 308 308 311 314 313 309 307 307 310 308 306 301 293
73 282 256 300 70 353 307 12 328 284 281 297 291 19 48 24 10 360 351 6 52 93 121 106 109 83 27 21 290 306 324 333 327 325 319 318 313 310 312 311 310 307 301 296
39 205 263 184 149 129 214 241 293 286 270 266 298 100 60 22 14 21 18 46 69 90 92 87 48 344 326 290 330 348 347 336 325 320 317 313 310 311 314 313 312 312 306 297
291 274 283 302 1 339 290 313 319 278 275 339 18 333 29 15 14 24 37 55 86 106 114 6 332 265 337 25 360 333 329 329 324 323 318 316 317 320 322 319 314 314 309 303
299 265 261 283 245 224 320 313 331 41 2 320 11 16 15 13 13 23 29 43 64 71 9 37 359 2 349 341 331 328 331 329 325 326 327 328 330 327 324 323 318 318 317 312
194 224 255 225 190 310 220 126 141 118 13 16 345 77 7 20 20 23 21 22 48 91 7 23 6 343 334 327 329 331 327 326 331 335 335 334 332 326 323 320 318 314 313 311
219 194 266 257 196 264 196 61 61 121 49 338 356 26 351 12 13 14 13 14 21 18 2 348 338 334 328 329 331 329 334 332 334 336 338 336 332 328 327 326 311 311 313 311
194 230 268 301 268 255 85 91 28 78 69 63 70 11 14 356 348 7 6 360 345 338 332 331 331 325 318 322 328 333 335 336 334 335 334 331 330 329 324 325 315 317 315 313
239 247 249 279 293 107 149 120 238 302 108 48 9 356 333 299 291 178 13 326 321 316 312 315 320 318 313 324 326 330 334 335 334 331 330 328 326 329 330 328 326 326 322 319
165 248 255 263 280 287 87 110 242 306 246 124 4 317 311 308 307 55 345 306 305 303 302 308 317 316 307 315 314 321 325 329 331 330 325 323 324 332 332 328 332 326 327 324
195 228 258 226 264 124 71 35 111 246 66 135 295 298 299 318 351 327 323 311 303 300 295 301 309 305 299 295 302 314 323 326 325 327 325 327 330 337 333 334 336 336 331 334
264 266 214 271 248 233 70 191 295 60 116 239 240 279 306 315 299 314 324 323 319 311 303 299 300 298 303 300 303 312 321 327 325 325 326 330 335 340 342 341 343 344 354 355
238 341 2 349 38 108 74 59 123 203 252 246 279 268 293 283 277 288 317 323 323 333 330 306 296 298 300 305 305 309 318 324 324 327 328 332 336 338 344 345 343 348 351 355
139 143 181 189 135 135 148 207 237 234 248 245 252 269 276 255 248 267 293 318 326 327 320 315 301 299 300 302 304 308 314 318 320 327 330 331 335 336 344 347 341 343 347 349
36 189 155 108 134 159 169 292 279 234 220 219 243 278 247 243 258 276 292 298 306 313 308 299 298 299 300 301 299 304 312 314 319 325 328 332 329 327 336 336 332 340 341 354
198 145 232 82 130 318 47 328 251 238 230 242 256 254 258 261 269 281 290 296 295 294 299 298 292 293 299 301 298 303 305 306 311 325 329 324 329 321 327 328 332 324 340 5